Wellsville, NY

6:45 AM EDT on July 26, 2017 (GMT -0400)
Wellsville Municipal-Tarantine

Weather History for KELZ - October, 2012

Change the Weather History Date:

Saturday, October 20, 2012

  Actual Average (KDSV) Record (KDSV)
Temperature  
Mean Temperature 48 °F -  
Max Temperature 53 °F 57 °F 84 °F (1984)
Min Temperature 42 °F 35 °F 19 °F (1974)
Degree Days  
Heating Degree Days 18    
Moisture  
Dew Point 37 °F    
Average Humidity 71    
Maximum Humidity 85    
Minimum Humidity 59    
Precipitation  
Precipitation 0.02 in - - ()
Sea Level Pressure  
Sea Level Pressure 29.73 in    
Wind  
Wind Speed 8 mph (SW)    
Max Wind Speed 13 mph    
Max Gust Speed 26 mph    
Visibility 10 miles    
Events Rain    
Averages and records for this station are not official NWS values.
T = Trace of Precipitation, MM = Missing Value Source: NWS Daily Summary

Daily Weather History Graph

Daily Weather History Graph

Search for Another Location

Airport or City:

Trip Planner

Search our weather history database for the weather conditions in past years. The results will help you decide how hot, cold, wet, or windy it might be!

Date:

Astronomy

Oct. 20, 2012 Rise Set
Actual Time 7:30 AM EDT 6:21 PM EDT
Civil Twilight 7:02 AM EDT 6:50 PM EDT
Nautical Twilight 6:29 AM EDT 7:22 PM EDT
Astronomical Twilight 5:57 AM EDT 7:55 PM EDT
Moon 1:08 PM EDT (10/20) 11:02 PM EDT (10/20)
Length of Visible Light 11h 47m
Length of Day
10h 50m
Waxing Crescent, 34% of the Moon is Illuminated
Oct 20
Waxing Crescent
Oct 21
First Quarter
Oct 29
Full
Nov 6
Last Quarter
Nov 13
New

Hourly Weather History & Observations

Time (EDT) Temp. Windchill Dew Point Humidity Pressure Visibility Wind Dir Wind Speed Gust Speed Precip Events Conditions
12:56 AM 53.1 °F - 39.9 °F 61% 29.65 in 10.0 mi SW 3.5 mph - 0.00 in   Overcast
1:56 AM 51.1 °F - 39.9 °F 66% 29.66 in 10.0 mi SW 12.7 mph 20.7 mph N/A   Scattered Clouds
2:56 AM 50.0 °F - 37.0 °F 61% 29.66 in 10.0 mi SW 4.6 mph - N/A   Mostly Cloudy
3:56 AM 48.9 °F - 37.0 °F 64% 29.66 in 10.0 mi SW 10.4 mph 18.4 mph N/A   Partly Cloudy
4:56 AM 46.9 °F - 37.0 °F 68% 29.67 in 10.0 mi SW 8.1 mph - N/A   Overcast
5:09 AM 46.4 °F 41.9 °F 35.6 °F 66% 29.67 in 10.0 mi WSW 9.2 mph 17.3 mph N/A   Overcast
5:54 AM 44.6 °F 39.2 °F 33.8 °F 66% 29.68 in 10.0 mi WSW 10.4 mph 21.9 mph N/A   Scattered Clouds
5:56 AM 45.0 °F 41.2 °F 34.0 °F 65% 29.68 in 10.0 mi Variable 6.9 mph 21.9 mph N/A   Partly Cloudy
6:56 AM 43.0 °F 40.3 °F 35.1 °F 74% 29.70 in 10.0 mi SE 4.6 mph - N/A   Clear
7:46 AM 42.8 °F 40.1 °F 35.6 °F 76% 29.69 in 10.0 mi South 4.6 mph - N/A   Overcast
7:56 AM 43.0 °F 40.3 °F 35.1 °F 74% 29.70 in 10.0 mi South 4.6 mph - N/A   Overcast
8:56 AM 44.1 °F 41.5 °F 36.0 °F 73% 29.72 in 10.0 mi Variable 4.6 mph - N/A   Overcast
9:28 AM 46.4 °F 42.9 °F 37.4 °F 71% 29.70 in 10.0 mi South 6.9 mph - N/A   Overcast
9:37 AM 46.4 °F 42.9 °F 37.4 °F 71% 29.70 in 10.0 mi SSW 6.9 mph - N/A   Overcast
9:56 AM 45.0 °F 41.2 °F 36.0 °F 71% 29.72 in 10.0 mi Variable 6.9 mph 17.3 mph N/A   Overcast
10:31 AM 46.4 °F 41.5 °F 37.4 °F 71% 29.71 in 10.0 mi SSW 10.4 mph - N/A   Overcast
10:44 AM 46.4 °F 41.9 °F 37.4 °F 71% 29.71 in 10.0 mi SSW 9.2 mph 16.1 mph N/A   Overcast
10:56 AM 46.0 °F 41.9 °F 37.0 °F 71% 29.73 in 10.0 mi SW 8.1 mph - N/A   Overcast
11:43 AM 48.2 °F - 41.0 °F 76% 29.72 in 10.0 mi WSW 8.1 mph 17.3 mph 0.01 in Rain Light Rain
12:42 PM 46.4 °F 42.9 °F 37.4 °F 71% 29.72 in 10.0 mi West 6.9 mph 16.1 mph N/A   Overcast
12:56 PM 46.9 °F - 37.0 °F 68% 29.73 in 10.0 mi SW 12.7 mph 23.0 mph N/A   Mostly Cloudy
1:56 PM 46.9 °F - 39.0 °F 74% 29.73 in 10.0 mi WSW 10.4 mph 26.5 mph 0.00 in Rain Light Rain
2:56 PM 51.1 °F - 37.0 °F 59% 29.72 in 10.0 mi WSW 10.4 mph 23.0 mph 0.00 in   Mostly Cloudy
3:23 PM 50.0 °F - 37.4 °F 62% 29.71 in 10.0 mi WSW 10.4 mph - N/A   Overcast
3:56 PM 50.0 °F - 36.0 °F 59% 29.72 in 10.0 mi WSW 8.1 mph - N/A   Mostly Cloudy
4:56 PM 48.9 °F - 36.0 °F 61% 29.74 in 10.0 mi SW 8.1 mph 20.7 mph 0.00 in   Partly Cloudy
5:56 PM 48.0 °F - 36.0 °F 63% 29.76 in 10.0 mi SW 6.9 mph 17.3 mph N/A   Mostly Cloudy
6:56 PM 46.0 °F 41.9 °F 37.0 °F 71% 29.79 in 10.0 mi SW 8.1 mph - 0.00 in   Overcast
7:18 PM 46.4 °F 43.5 °F 37.4 °F 71% 29.77 in 10.0 mi West 5.8 mph - 0.00 in Rain Light Rain
7:56 PM 44.1 °F 40.8 °F 37.9 °F 79% 29.81 in 10.0 mi WSW 5.8 mph - 0.01 in   Overcast
8:15 PM 44.6 °F 40.2 °F 37.4 °F 76% 29.78 in 10.0 mi WSW 8.1 mph - N/A   Mostly Cloudy
8:56 PM 44.1 °F 39.0 °F 39.0 °F 82% 29.83 in 10.0 mi WSW 9.2 mph - 0.00 in   Overcast
9:07 PM 44.6 °F 39.7 °F 39.2 °F 81% 29.80 in 10.0 mi WSW 9.2 mph 16.1 mph N/A   Overcast
9:53 PM 44.6 °F 38.4 °F 37.4 °F 76% 29.80 in 10.0 mi WSW 12.7 mph 21.9 mph 0.00 in   Overcast
9:56 PM 44.1 °F 38.6 °F 37.9 °F 79% 29.83 in 10.0 mi WSW 10.4 mph 21.9 mph 0.00 in   Overcast
10:56 PM 44.1 °F 38.6 °F 39.0 °F 82% 29.83 in 10.0 mi WSW 10.4 mph 19.6 mph 0.00 in Rain Light Rain
11:35 PM 44.6 °F 38.8 °F 39.2 °F 81% 29.81 in 10.0 mi WSW 11.5 mph 19.6 mph 0.01 in   Overcast
11:56 PM 44.1 °F 38.6 °F 39.9 °F 85% 29.83 in 10.0 mi WSW 10.4 mph - 0.01 in Rain Light Rain